User: anonymous   Login
Location: Unspecified
(0.0000°N, 0.0000°E)
Time: 12:29:30
(UTC+00:00)
Language:

Oscar 19 - Orbit

View from above orbital plane
View from above orbital plane
View from above satellite
View from above satellite

Ground track
Ground track

The orbit data is extracted from the following two-line orbital elements,

1 20442U 90005G   17204.87484961 -.00000019 +00000-0 +90541-5 0  9992
2 20442 098.5764 141.0189 0012630 043.6113 316.6067 14.32864731436817
Epoch (UTC): 23 July 2017 20:59:47
Eccentricity: 0.0012630
inclination: 98.5764°
perigee height: 773 km
apogee height: 791 km
right ascension of ascending node: 141.0189°
argument of perigee: 43.6113°
revolutions per day: 14.32864731
mean anomaly at epoch: 316.6067°
orbit number at epoch: 43681

The dashed part of the orbit path shows where the satellite is in the earth's shadow,  

DLR